FW1286 Weather Reports


Display with metric or nautical units.
time (UTC)temp
F
wind
direction
speed
MPH
gust
MPH
rain 1hr
in
rain 24hr
in
rain mn
in
humidity
%
barometer
mb
20260902224422 94 151 0.0 1.0 0.00 0.00 0.00 55 1009.7
20260902223356 95 151 1.0 4.0 0.00 0.00 0.00 54 1009.7
20260902222416 96 68 0.0 4.0 0.00 0.00 0.00 48 1009.7
20260902220312 96 18 2.0 9.0 0.00 0.00 0.00 50 1009.9
20260902215337 97 331 3.0 9.0 0.00 0.00 0.00 48 1009.9
20260902214339 97 209 2.0 6.0 0.00 0.00 0.00 47 1010.1
20260902213355 97 286 2.0 6.0 0.00 0.00 0.00 48 1010.1
20260902212409 97 319 1.0 6.0 0.00 0.00 0.00 50 1010.2
20260902211401 96 346 1.0 4.0 0.00 0.00 0.00 48 1010.1
20260902210337 96 346 1.0 4.0 0.00 0.00 0.00 48 1010.2
20260902205355 96 355 1.0 4.0 0.00 0.00 0.00 49 1010.3
20260902204414 95 355 1.0 4.0 0.00 0.00 0.00 51 1010.5
20260902203414 95 344 1.0 5.0 0.00 0.00 0.00 51 1010.7
20260902202429 95 277 1.0 5.0 0.00 0.00 0.00 51 1010.9
20260902195132 95 355 1.0 4.0 0.00 0.00 0.00 53 1011.3
20260902194108 95 346 1.0 6.0 0.00 0.00 0.00 53 1011.4
20260902193040 94 327 2.0 6.0 0.00 0.00 0.00 53 1011.6
20260902192023 93 337 3.0 6.0 0.00 0.00 0.00 54 1011.7
20260902185826 95 161 1.0 9.0 0.00 0.00 0.00 51 1011.9
20260902184808 95 309 3.0 9.0 0.00 0.00 0.00 52 1012.0
20260902183809 95 229 3.0 9.0 0.00 0.00 0.00 53 1012.2
20260902181627 95 76 4.0 8.0 0.00 0.00 0.00 53 1012.4
20260902180647 94 140 3.0 8.0 0.00 0.00 0.00 54 1012.7
20260902175711 95 100 2.0 9.0 0.00 0.00 0.00 53 1013.0
20260902173541 94 187 4.0 12.0 0.00 0.00 0.00 55 1013.4
20260902171448 93 296 5.0 15.0 0.00 0.00 0.00 56 1013.7
20260902170428 92 186 4.0 10.0 0.00 0.00 0.00 57 1013.8
20260902164314 92 166 3.0 12.0 0.00 0.00 0.00 59 1014.0
20260902163300 92 153 4.0 10.0 0.00 0.00 0.00 58 1014.1
20260902162254 91 188 6.0 10.0 0.00 0.00 0.00 58 1014.1
20260902160117 90 167 5.0 9.0 0.00 0.00 0.00 58 1014.2
20260902152905 88 172 4.0 10.0 0.00 0.00 0.00 62 1014.4
20260902151830 87 183 6.0 10.0 0.00 0.00 0.00 64 1014.4
20260902150826 87 197 6.0 9.0 0.00 0.00 0.00 67 1014.3
20260902145835 86 190 5.0 9.0 0.00 0.00 0.00 70 1014.2
20260902144833 85 169 5.0 9.0 0.00 0.00 0.00 71 1014.3
20260902143854 83 192 4.0 8.0 0.00 0.00 0.00 75 1014.3
20260902142823 83 173 4.0 7.0 0.00 0.00 0.00 76 1014.4
20260902141830 82 184 3.0 5.0 0.00 0.00 0.00 79 1014.5
20260902135621 79 186 2.0 6.0 0.00 0.00 0.00 81 1014.3
20260902134555 78 81 0.0 0.0 0.00 0.00 0.00 84 1014.3
20260902133528 77 81 0.0 0.0 0.00 0.00 0.00 86 1014.3
20260902132526 77 43 0.0 0.0 0.00 0.00 0.00 89 1014.2
20260902131521 76 43 0.0 0.0 0.00 0.00 0.00 91 1014.1
20260902125418 73 43 0.0 0.0 0.00 0.00 0.00 92 1013.9
20260902124402 72 43 1.0 4.0 0.00 0.00 0.00 92 1013.8
20260902123359 72 43 0.0 3.0 0.00 0.00 0.00 91 1013.7
20260902121224 72 43 0.0 0.0 0.00 0.00 0.00 90 1013.5
20260902120220 73 43 0.0 0.0 0.00 0.00 0.00 90 1013.5
20260902114005 73 43 0.0 0.0 0.00 0.00 0.00 89 1013.4
20260902113001 73 43 0.0 0.0 0.00 0.00 0.00 89 1013.3
20260902110842 73 43 0.0 0.0 0.00 0.00 0.00 89 1013.3
20260902103624 73 43 0.0 0.0 0.00 0.00 0.00 89 1013.2
20260902102645 74 43 0.0 0.0 0.00 0.00 0.00 88 1013.2
20260902101631 74 43 0.0 0.0 0.00 0.00 0.00 87 1013.3
20260902100626 74 43 0.0 0.0 0.00 0.00 0.00 87 1013.3
20260902095558 74 43 0.0 0.0 0.00 0.00 0.00 87 1013.4
20260902094541 74 43 0.0 0.0 0.00 0.00 0.00 86 1013.5
20260902093529 75 43 0.0 0.0 0.00 0.00 0.00 85 1013.5
20260902092533 75 43 0.0 0.0 0.00 0.00 0.00 85 1013.5
20260902090402 76 43 0.0 0.0 0.00 0.00 0.00 84 1013.6
20260902085334 76 43 0.0 0.0 0.00 0.00 0.00 83 1013.5
20260902084259 76 43 0.0 1.0 0.00 0.00 0.00 83 1013.6
20260902082159 77 43 0.0 4.0 0.00 0.00 0.00 82 1013.4
20260902081140 77 46 0.0 4.0 0.00 0.00 0.00 81 1013.5
20260902080148 77 59 0.0 3.0 0.00 0.00 0.00 81 1013.4
20260902075204 77 58 0.0 3.0 0.00 0.00 0.00 81 1013.4
20260902074216 77 55 0.0 3.0 0.00 0.00 0.00 80 1013.3
20260902073204 77 61 1.0 3.0 0.00 0.00 0.00 79 1013.5
20260902072218 78 30 1.0 4.0 0.00 0.00 0.00 79 1013.6
20260902070055 78 66 1.0 4.0 0.00 0.00 0.00 78 1013.7
20260902065035 78 57 1.0 4.0 0.00 0.00 0.00 78 1013.7
20260902064036 78 57 0.0 3.0 0.00 0.00 0.00 78 1013.9
20260902061900 78 57 0.0 3.0 0.00 0.00 0.00 79 1013.9
20260902060906 79 57 0.0 2.0 0.00 0.00 0.00 79 1013.7
20260902055925 79 57 0.0 0.0 0.00 0.00 0.00 78 1013.7
20260902054920 80 57 0.0 1.0 0.00 0.00 0.00 77 1013.6
20260902053859 80 57 0.0 3.0 0.00 0.00 0.00 77 1013.6
20260902052905 80 57 0.0 3.0 0.00 0.00 0.00 76 1013.5
20260902051846 80 57 0.0 1.0 0.00 0.00 0.00 76 1013.5
20260902050832 80 57 0.0 3.0 0.00 0.00 0.00 75 1013.4
20260902045826 81 57 0.0 3.0 0.00 0.00 0.00 74 1013.4
20260902044803 81 57 0.0 1.0 0.00 0.00 0.00 74 1013.5
20260902043732 81 57 0.0 0.0 0.00 0.00 0.00 73 1013.3
20260902042724 81 57 0.0 1.0 0.00 0.00 0.00 73 1013.3
20260902041732 81 57 0.0 1.0 0.00 0.00 0.00 72 1013.4
20260902040720 82 57 0.0 1.0 0.00 0.00 0.00 72 1013.3
20260902035728 82 57 0.0 1.0 0.00 0.00 0.00 71 1013.2
20260902033604 82 57 0.0 3.0 0.00 0.00 0.00 70 1013.2
20260902032550 83 57 0.0 3.0 0.00 0.00 0.00 69 1013.1
20260902024200 84 57 0.0 1.0 0.00 0.00 0.00 66 1012.5
20260902023218 84 57 0.0 1.0 0.00 0.00 0.00 65 1012.1
20260902022158 84 57 0.0 0.0 0.00 0.00 0.00 65 1012.0
20260902021130 85 57 0.0 0.0 0.00 0.00 0.00 64 1011.9
20260902012709 87 57 0.0 2.0 0.00 0.00 0.00 60 1011.5
20260902011726 88 57 0.0 0.0 0.00 0.00 0.00 59 1011.4
20260902004444 91 57 0.0 4.0 0.00 0.00 0.00 54 1011.3
20260902003505 92 43 1.0 6.0 0.00 0.00 0.00 53 1011.3
20260902001314 93 34 3.0 7.0 0.00 0.00 0.00 52 1011.3
20260902000337 94 37 3.0 7.0 0.00 0.00 0.00 51 1011.4
20260901235339 94 355 3.0 9.0 0.00 0.00 0.00 51 1011.3
20260901234339 95 24 4.0 9.0 0.00 0.00 0.00 50 1011.4
20260901233400 95 38 4.0 10.0 0.00 0.00 0.00 49 1011.3
20260901232423 96 24 4.0 10.0 0.00 0.00 0.00 49 1011.2
20260901231406 96 5 5.0 8.0 0.00 0.00 0.00 49 1011.2
20260901230335 96 17 3.0 9.0 0.00 0.00 0.00 48 1011.3
20260901225327 96 9 4.0 11.0 0.00 0.00 0.00 48 1011.3